Capitol Logistics 235


KPHX
Phoenix Sky Harbor International Airport
Phoenix, Arizona, US
KMIA
Miami International Airport
Miami, Florida, US

Route Details

Aircraft Information
Primary: Boeing 767-300BDSF
Backup: Not Available
Route Data
Distance: 1723nm
Sched. Duration: 4h 00m
Avg. Duration: 3h 93m (-6m)
Times Flown: 7
Recm'd Route: ECLPS1 PHASE ELP FST J86 LEV Y290 BLVNS Y290 BAGGS SSCOT5
Planned Altitude: 35,000ft
Origin Wx: KPHX 202251Z 25005KT 10SM CLR 36/M01 A2974 RMK AO2 SLP051 T03561011
Dest. Wx: KMIA 202253Z 03005KT 10SM -RA FEW014 SCT025 BKN080 OVC250 24/23 A2989 RMK AO2 RAB35 SLP123 CB NE AND SW-NW MOV W P0025 T02390228
Notes:

Financial History
Total Freight: 551,466lbs
Average Load: 78,781lbs/flt
Fuel Used: 293,372lbs
Avg. Fuel Used: 41,910lbs/flt
Fuel Expense: $237,631
Avg. Fuel Expense: $33,947
Avg. Fuel Cost: $0.81/lbs
Total Gross Income: $782,860
Pilot Pay: $1,263
Total Expenses: $84,913
Total Revenue: $455,100
Average Revenue: $111,837.12